Regional Weather Roundup
Issued by NWS

Home | Current Version | Previous Version | Text Only | Print | Product List | Glossary On
Versions: 1 2 3 4 5 6 7 8 9 10 11 12 13 14 15 16 17 18 19 20 21 22 23 24 25 26 27 28 29 30 31 32 33 34 35 36 37 38 39 40 41 42 43 44 45 46 47 48 49 50
000
ASUS45 KABQ 051110
RWRNM
NEW MEXICO REGIONAL WEATHER ROUNDUP
NATIONAL WEATHER SERVICE ALBUQUERQUE NM
500 AM MDT SAT SEP 05 2015

NOTE: "FAIR" MEANS FEW OR NO CLOUDS BELOW 12,000 FEET AGL WITH NO
       SIGNIFICANT WEATHER OR OBSTRUCTIONS TO VISION.

      THIS PRODUCT IS RELEASED AS TWO VERSIONS.  ONE VERSION NEAR
      THE TOP OF THE HOUR CONTAINING PRELIMINARY DATA FROM ALBUQUERQUE
      AND OTHER STATIONS.  A FINAL VERSION WITH ADDITIONAL DATA IS
      ISSUED ABOUT 10 MINUTES AFTER THE HOUR.

NMZ501-503-504-510>518-051200-
NORTHWEST PLATEAU/NORTHCENTRAL MOUNTAINS

CITY           SKY/WX    TMP DP  RH WIND       PRES   REMARKS
FARMINGTON     CLOUDY    61  57  87 E7        30.13R
LOS ALAMOS     MOCLDY    56  53  90 S7        30.25R
SANTA FE       CLOUDY    57  54  89 NW3       30.20R
TAOS           CLOUDY    55  45  67 CALM      30.26R
ANGEL FIRE     CLOUDY    53  49  87 SE5       30.29R

$$
NMZ402-403-502-505>509-051200-
WESTCENTRAL MOUNTAINS/SOUTHWEST MOUNTAINS

CITY           SKY/WX    TMP DP  RH WIND       PRES   REMARKS
GALLUP         CLOUDY    58  55  90 CALM      30.20S
GRANTS         CLOUDY    57  56  99 CALM      30.22F
SILVER CITY      N/A     59  57  94 NW7       30.14R

$$
NMZ407-409-411-412-051200-
SOUTHERN DESERTS

CITY           SKY/WX    TMP DP  RH WIND       PRES   REMARKS
LORDSBURG      PTSUNNY   63  63 100 W5        30.07R
DEMING         MOCLDY    61  60  97 SE3       30.07R
LAS CRUCES     MOCLDY    68  56  65 NW5       30.07S
HOLLOMAN AFB   MOCLDY    69  56  63 NE8       30.02S
ALAMOGORDO     MOCLDY    66  55  68 NE6       30.05S
T OR C         PTCLDY    62  57  83 N3        30.09R

$$
NMZ519>523-051200-
CENTRAL VALLEYS/CENTRAL HIGHLANDS

CITY           SKY/WX    TMP DP  RH WIND       PRES   REMARKS
ALBUQUERQUE    CLOUDY    64  59  83 N6        30.16R
DOUBLE EAGLE   CLOUDY    59  58  96 NW3       30.19R
MORIARTY ARPT  FAIR      55  52  90 CALM      30.20S FOG
CLINES CORNERS CLOUDY    57  51  80 W10       30.22R
BELEN          CLOUDY    62  60  96 NW6       30.14S
SOCORRO        FAIR      61  58  90 CALM      30.11R

$$
NMZ524>526-539-540-051200-
SOUTHCENTRAL MOUNTAINS

CITY           SKY/WX    TMP DP  RH WIND       PRES   REMARKS
RUIDOSO        MOCLDY    59  52  77 SW6       30.25R

$$
NMZ527>531-051200-
NORTHEAST HIGHLANDS/NORTHEAST PLAINS

CITY           SKY/WX    TMP DP  RH WIND       PRES   REMARKS
LAS VEGAS      MOCLDY    58  50  75 SW10      30.20S
RATON          MOCLDY    59  50  72 SW6       30.13R
CLAYTON        PTCLDY    66  52  60 SW7       30.07S

$$
NMZ532>537-051200-
EASTCENTRAL PLAINS

CITY           SKY/WX    TMP DP  RH WIND       PRES   REMARKS
TUCUMCARI      CLEAR     60  53  77 CALM      30.04R
CANNON AFB     CLEAR     66  53  62 S7        30.08R
CLOVIS AIRPORT CLEAR     63  52  67 S7        30.09S

$$
NMZ028-029-538-051200-
SOUTHEAST PLAINS

CITY           SKY/WX    TMP DP  RH WIND       PRES   REMARKS
ROSWELL        PTCLDY    68  56  65 CALM      30.03R
ARTESIA        CLEAR     66  54  63 N5        30.03S
CARLSBAD       CLEAR     71  52  50 S6        30.00R
HOBBS            N/A     66  55  68 S6        30.06R


$$



USA.gov is the U.S. government's official web portal to all federal, state and local government web resources and services.